Date String (YYYY-MM-DD hh:mm:ss) UTC,Instrument flags,Ambient pressure (hPa),Sample flow (lpm),Bypass flow (lpm),Sample temperature (°C),Ambient temperature (°C),ASC tube jacket temperature (°C),LED temperature (°C),Box temperature (°C),Sample RH (%),Span deviation,Mass concentration (μg/m³),Mass concentration (μg/m³),Mass concentration (μg/m³)
DateTimeUTC,F1_M11,P_M11,Q1_M11,Q2_M11,T1_M11,T2_M11,T3_M11,T4_M11,T5_M11,U1_M11,ZSPAN_M11,X0_M11,X2_M11,X1_M11
2022-12-01 05:00:00,,0820.6,4.98,0.00,22.3,20.9,00.0,31.2,24.1,10.2,0000.8,0017.62,0013.25,0012.79
2022-12-01 05:01:00,,0820.7,5.00,0.00,22.3,20.8,00.0,31.2,24.0,10.2,0001.0,0017.31,0013.36,0012.90
2022-12-01 05:02:00,,0820.2,5.00,0.00,22.2,20.6,00.0,31.2,23.9,10.3,0000.2,0017.42,0013.51,0013.07
2022-12-01 05:03:00,,0820.3,5.00,0.00,22.2,20.7,00.0,31.2,23.9,10.3,0000.7,0017.84,0013.96,0013.52
2022-12-01 05:04:00,,0820.5,5.01,0.00,22.3,21.5,00.0,31.1,24.1,10.3,0001.1,0018.11,0014.32,0013.92
2022-12-01 05:05:00,,0820.6,5.00,0.00,22.4,22.2,00.0,31.1,24.3,10.2,0000.9,0018.22,0014.41,0014.02
2022-12-01 05:06:00,,0820.6,4.99,0.00,22.4,22.1,00.0,31.2,24.3,10.2,0001.5,0018.30,0014.41,0014.04
2022-12-01 05:07:00,,0820.4,4.98,0.00,22.4,21.7,00.0,31.2,24.3,10.2,0001.8,0018.27,0014.38,0014.01
2022-12-01 05:08:00,,0820.3,5.00,0.00,22.4,21.5,00.0,31.2,24.2,10.1,0001.4,0018.34,0014.52,0014.16
2022-12-01 05:09:00,,0820.2,5.00,0.00,22.4,21.3,00.0,31.2,24.1,10.1,0001.5,0018.56,0014.76,0014.41
2022-12-01 05:10:00,,0820.2,5.00,0.00,22.3,21.1,00.0,31.3,24.1,10.1,0001.2,0018.69,0015.00,0014.64
2022-12-01 05:11:00,,0820.2,5.00,0.00,22.3,21.0,00.0,31.3,24.1,10.0,0001.0,0018.83,0015.29,0014.92
2022-12-01 05:12:00,,0820.2,5.00,0.00,22.3,21.0,00.0,31.2,24.1,10.0,0000.8,0019.23,0015.66,0015.27
2022-12-01 05:13:00,,0820.3,5.00,0.00,22.3,21.0,00.0,31.2,24.1,10.0,0001.6,0019.55,0015.95,0015.54
2022-12-01 05:14:00,,0820.4,5.00,0.00,22.3,20.9,00.0,31.2,24.0,10.0,0001.9,0019.57,0015.97,0015.56
2022-12-01 05:15:00,,0820.4,5.00,0.00,22.3,20.8,00.0,31.2,24.0,10.0,0001.7,0020.03,0016.10,0015.67
2022-12-01 05:16:00,,0820.4,5.00,0.00,22.3,20.8,00.0,31.2,24.0,10.1,0001.6,0020.75,0016.47,0016.02
2022-12-01 05:17:00,,0820.3,5.00,0.00,22.2,21.0,00.0,31.2,24.0,10.1,0001.3,0021.01,0016.81,0016.37
2022-12-01 05:18:00,,0820.3,5.01,0.00,22.3,21.8,00.0,31.1,24.2,10.1,0001.3,0021.83,0017.10,0016.65
2022-12-01 05:19:00,,0820.3,5.00,0.00,22.4,22.4,00.0,31.1,24.4,10.0,0001.7,0022.18,0017.14,0016.70
2022-12-01 05:20:00,,0820.3,5.00,0.00,22.5,22.2,00.0,31.2,24.4,10.0,0002.0,0022.29,0017.03,0016.57
2022-12-01 05:21:00,,0820.3,4.99,0.00,22.5,21.9,00.0,31.2,24.3,10.0,0001.9,0022.29,0016.97,0016.49
2022-12-01 05:22:00,,0820.2,4.99,0.00,22.4,21.6,00.0,31.3,24.3,10.0,0001.3,0022.19,0016.92,0016.45
2022-12-01 05:23:00,,0820.2,5.00,0.00,22.4,21.4,00.0,31.3,24.2,10.0,0001.4,0022.11,0016.87,0016.41
2022-12-01 05:24:00,,0820.2,5.00,0.00,22.4,21.2,00.0,31.3,24.2,09.9,0001.0,0022.03,0016.82,0016.34
2022-12-01 05:25:00,,0820.2,5.00,0.00,22.4,21.0,00.0,31.3,24.1,10.0,0000.2,0021.95,0016.74,0016.26
2022-12-01 05:26:00,,0820.2,4.99,0.00,22.3,20.8,00.0,31.3,24.1,10.0,-000.1,0021.58,0016.70,0016.22
2022-12-01 05:27:00,,0820.0,5.00,0.00,22.3,20.6,00.0,31.3,24.0,10.0,-000.1,0021.01,0016.61,0016.13
2022-12-01 05:28:00,,0820.1,5.00,0.00,22.2,20.4,00.0,31.3,23.8,10.1,-000.3,0021.06,0016.67,0016.18
2022-12-01 05:29:00,,0820.3,5.00,0.00,22.1,20.2,00.0,31.2,23.8,10.2,-000.6,0021.32,0017.07,0016.48
2022-12-01 05:30:00,,0820.2,5.00,0.00,22.1,20.2,00.0,31.2,23.8,10.2,-001.1,0021.31,0017.44,0016.81
2022-12-01 05:31:00,,0820.1,5.01,0.00,22.1,21.0,00.0,31.1,23.9,10.2,-001.0,0021.16,0017.61,0016.99
2022-12-01 05:32:00,,0820.0,5.00,0.00,22.2,21.9,00.0,31.1,24.1,10.2,-001.0,0021.44,0017.96,0017.33
2022-12-01 05:33:00,,0820.1,5.00,0.00,22.3,22.0,00.0,31.1,24.2,10.1,-000.6,0022.99,0018.42,0017.73
2022-12-01 05:34:00,,0820.2,4.99,0.00,22.3,21.7,00.0,31.2,24.2,10.1,-000.6,0024.06,0018.68,0017.96
2022-12-01 05:35:00,,0820.0,4.99,0.00,22.3,21.4,00.0,31.2,24.1,10.1,-000.8,0024.59,0018.97,0018.23
2022-12-01 05:36:00,,0819.9,5.00,0.00,22.3,21.1,00.0,31.2,24.1,10.2,-000.5,0025.55,0019.50,0018.72
2022-12-01 05:37:00,,0819.9,5.01,0.00,22.2,21.0,00.0,31.2,24.1,10.2,-000.4,0027.00,0020.00,0019.18
2022-12-01 05:38:00,,0819.9,5.00,0.00,22.2,20.9,00.0,31.2,24.0,10.2,-000.6,0027.89,0020.54,0019.71
2022-12-01 05:39:00,,0819.9,5.00,0.00,22.2,20.9,00.0,31.2,24.0,10.2,-000.7,0028.84,0020.98,0020.16
2022-12-01 05:40:00,,0819.9,5.01,0.00,22.2,20.8,00.0,31.2,23.9,10.2,-000.7,0029.11,0021.20,0020.39
2022-12-01 05:41:00,,0820.1,5.00,0.00,22.1,20.5,00.0,31.1,23.8,10.2,-000.7,0029.49,0021.43,0020.62
2022-12-01 05:42:00,,0820.3,5.00,0.00,22.1,20.2,00.0,31.1,23.7,10.3,-000.6,0031.37,0022.12,0021.21
2022-12-01 05:43:00,,0820.3,5.02,0.00,22.0,20.3,00.0,31.1,23.7,10.4,-000.3,0032.51,0022.64,0021.72
2022-12-01 05:44:00,,0820.1,5.00,0.00,22.1,21.3,00.0,31.0,23.9,10.2,-000.2,0031.83,0022.72,0021.83
2022-12-01 05:45:00,,0820.0,5.00,0.00,22.2,22.1,00.0,31.0,24.1,10.1,0000.2,0031.96,0022.85,0021.91
2022-12-01 05:46:00,,0819.9,4.99,0.00,22.3,22.0,00.0,31.1,24.2,10.1,0000.5,0032.68,0022.90,0021.95
2022-12-01 05:47:00,,0819.9,5.00,0.00,22.3,21.6,00.0,31.1,24.1,09.9,0000.2,0031.96,0022.30,0021.42
2022-12-01 05:48:00,,0819.9,5.01,0.00,22.2,21.3,00.0,31.1,24.1,09.8,-000.1,0030.76,0021.41,0020.55
2022-12-01 05:49:00,,0819.9,5.01,0.00,22.2,21.1,00.0,31.1,24.0,09.9,0000.7,0029.88,0020.69,0019.84
2022-12-01 05:50:00,,0819.9,4.99,0.00,22.2,20.9,00.0,31.1,23.9,09.9,0000.9,0028.66,0019.87,0019.06
2022-12-01 05:51:00,,0819.8,4.99,0.00,22.1,20.7,00.0,31.1,23.9,10.0,0001.3,0028.40,0019.15,0018.37
2022-12-01 05:52:00,,0819.6,5.01,0.00,22.1,20.6,00.0,31.1,23.9,10.1,0001.6,0027.84,0018.77,0018.03
2022-12-01 05:53:00,,0819.6,5.01,0.00,22.1,20.5,00.0,31.1,23.9,10.2,0001.2,0026.47,0018.45,0017.72
2022-12-01 05:54:00,,0819.7,5.00,0.00,22.1,20.3,00.0,31.1,23.7,10.3,0001.2,0026.10,0017.96,0017.28
2022-12-01 05:55:00,,0819.9,5.00,0.00,22.0,20.2,00.0,31.1,23.6,10.4,0001.5,0025.58,0017.65,0017.00
2022-12-01 05:56:00,,0819.9,5.01,0.00,22.0,20.9,00.0,31.0,23.8,10.2,0000.9,0024.15,0016.97,0016.42
2022-12-01 05:57:00,,0819.7,4.99,0.00,22.1,21.8,00.0,31.0,24.0,10.1,0000.6,0022.81,0016.27,0015.76
2022-12-01 05:58:00,,0819.7,5.00,0.00,22.2,22.4,00.0,31.0,24.2,10.0,0001.1,0022.36,0016.04,0015.54
2022-12-01 05:59:00,,0819.8,5.00,0.00,22.3,22.1,00.0,31.0,24.2,10.0,0001.7,0021.87,0016.18,0015.66
